Spokane Fairchild, WA

9:53 PM PDT on August 22, 2017 (GMT -0700)
Fairchild Air Force Base

Weather History for KSKA - January, 2013

Change the Weather History Date:

Sunday, January 13, 2013

  Actual Average Record
Temperature  
Mean Temperature 12 °F -  
Max Temperature 19 °F 31 °F 45 °F (2014)
Min Temperature 6 °F 21 °F -4 °F (2007)
Degree Days  
Heating Degree Days 52    
Moisture  
Dew Point 15 °F    
Average Humidity 99    
Maximum Humidity 100    
Minimum Humidity 73    
Precipitation  
Precipitation 0.00 in - - ()
Snow  
Snow 0.00 in - - ()
Snow Depth 3.00 in    
Sea Level Pressure  
Sea Level Pressure 30.40 in    
Wind  
Wind Speed 3 mph (SSE)    
Max Wind Speed 6 mph    
Max Gust Speed -    
Visibility 10 miles    
Events Snow    
Averages and records for this station are not official NWS values.
T = Trace of Precipitation, MM = Missing Value Source: NWS Daily Summary

Daily Weather History Graph

Daily Weather History Graph

Search for Another Location

Airport or City:

Trip Planner

Search our weather history database for the weather conditions in past years. The results will help you decide how hot, cold, wet, or windy it might be!

Date:

Astronomy

Jan. 13, 2013 Rise Set
Actual Time 7:35 AM PST 4:24 PM PST
Civil Twilight 7:00 AM PST 4:59 PM PST
Nautical Twilight 6:21 AM PST 5:37 PM PST
Astronomical Twilight 5:44 AM PST 6:14 PM PST
Moon 8:23 AM PST (1/13) 7:22 PM PST (1/13)
Length of Visible Light 9h 58m
Length of Day
8h 49m
Waxing Crescent, 6% of the Moon is Illuminated
Jan 13
Waxing Crescent
Jan 18
First Quarter
Jan 26
Full
Feb 3
Last Quarter
Feb 9
New

Hourly Weather History & Observations

Time (PST) Temp. Windchill Dew Point Humidity Pressure Visibility Wind Dir Wind Speed Gust Speed Precip Events Conditions
12:59 AM 6.8 °F -2.0 °F 6.8 °F 100% 30.37 in 10.0 mi SW 4.6 mph - N/A   Overcast
1:39 AM 14.0 °F 6.5 °F 6.8 °F 73% 30.27 in 10.0 mi SW 4.6 mph - N/A Snow Light Snow
1:59 AM 15.8 °F 8.6 °F 14.0 °F 93% 30.39 in 10.0 mi SSE 4.6 mph - 0.00 in Snow Light Snow
2:29 AM 15.8 °F 8.6 °F 15.8 °F 100% 30.51 in 7.0 mi South 4.6 mph - N/A Snow Light Snow
2:56 AM 15.4 °F 6.8 °F 15.4 °F 100% 30.40 in 7.0 mi SSE 5.8 mph - 0.00 in Snow Light Snow
3:56 AM 15.8 °F - 15.8 °F 100% 30.39 in 8.0 mi South 2.3 mph - 0.00 in   Overcast
4:34 AM 15.8 °F - 15.8 °F 100% 30.51 in 10.0 mi ESE 2.3 mph - N/A Snow Light Snow
4:59 AM 15.1 °F - 15.1 °F 100% 30.40 in 10.0 mi East 2.3 mph - 0.00 in Snow Light Snow
5:56 AM 13.8 °F - 13.8 °F 100% 30.42 in 10.0 mi NNE 2.3 mph - 0.00 in Snow Light Snow
6:56 AM 14.0 °F 8.2 °F 14.0 °F 100% 30.46 in 8.0 mi NNE 3.5 mph - 0.00 in   Overcast
7:58 AM 14.5 °F 8.8 °F 14.5 °F 100% 30.48 in 10.0 mi NNW 3.5 mph - N/A   Overcast
8:58 AM 14.0 °F 8.2 °F 14.0 °F 100% 30.49 in 10.0 mi North 3.5 mph - N/A   Overcast
9:12 AM 14.0 °F - 14.0 °F 100% 30.34 in 10.0 mi NNW 2.3 mph - N/A   Overcast
9:27 AM 14.0 °F - 14.0 °F 100% 30.34 in 10.0 mi North 1.2 mph - N/A   Overcast
9:42 AM 14.0 °F - 14.0 °F 100% 30.34 in 10.0 mi ENE 2.3 mph - N/A   Scattered Clouds
9:58 AM 13.6 °F - 13.6 °F 100% 30.49 in 9.0 mi ENE 2.3 mph - N/A   Partly Cloudy
10:58 AM 16.3 °F - 16.3 °F 100% 30.49 in 10.0 mi WSW 2.3 mph - N/A   Clear
10:59 AM 15.8 °F - 15.8 °F 100% 30.34 in 10.0 mi Calm Calm - N/A   Partly Cloudy
11:49 AM 15.8 °F - 15.8 °F 100% 30.34 in 10.0 mi SSE 1.2 mph - N/A   Mostly Cloudy
11:58 AM 16.5 °F - 16.5 °F 100% 30.49 in 10.0 mi Calm Calm - N/A   Mostly Cloudy
12:03 PM 17.6 °F - 17.6 °F 100% 30.33 in 10.0 mi Calm Calm - N/A   Mostly Cloudy
12:28 PM 15.8 °F - 15.8 °F 100% 30.33 in 10.0 mi SE 2.3 mph - N/A   Scattered Clouds
12:43 PM 15.8 °F 10.2 °F 15.8 °F 100% 30.32 in 9.0 mi SE 3.5 mph - N/A   Mostly Cloudy
12:48 PM 15.8 °F - 15.8 °F 100% 30.32 in 9.0 mi SE 2.3 mph - N/A   Scattered Clouds
12:53 PM 17.6 °F - 17.6 °F 100% 30.32 in 10.0 mi SE 2.3 mph - N/A   Mostly Cloudy
12:58 PM 16.9 °F - 16.9 °F 100% 30.48 in 10.0 mi ESE 2.3 mph - N/A   Mostly Cloudy
1:00 PM 17.6 °F - 17.6 °F 100% 30.33 in 10.0 mi ESE 2.3 mph - N/A   Mostly Cloudy
1:10 PM 17.6 °F - 17.6 °F 100% 30.33 in 10.0 mi SSE 1.2 mph - N/A   Mostly Cloudy
1:13 PM 17.6 °F - 17.6 °F 100% 30.33 in 10.0 mi Calm Calm - N/A   Mostly Cloudy
1:18 PM 17.6 °F - 17.6 °F 100% 30.33 in 10.0 mi SE 1.2 mph - N/A   Scattered Clouds
1:58 PM 19.0 °F - 19.0 °F 100% 30.45 in 10.0 mi Calm Calm - N/A   Clear
2:58 PM 17.8 °F - 17.8 °F 100% 30.45 in 10.0 mi Calm Calm - N/A   Clear
3:58 PM 15.4 °F - 15.4 °F 100% 30.47 in 10.0 mi SE 2.3 mph - N/A   Mostly Cloudy
4:33 PM 15.8 °F 10.2 °F 15.8 °F 100% 30.32 in 10.0 mi WSW 3.5 mph - N/A   Overcast
4:58 PM 13.8 °F 6.2 °F 13.8 °F 100% 30.47 in 10.0 mi WSW 4.6 mph - N/A   Overcast
5:03 PM 14.0 °F 6.5 °F 14.0 °F 100% 30.33 in 10.0 mi WSW 4.6 mph - N/A   Overcast
5:58 PM 13.1 °F 7.1 °F 13.1 °F 100% 30.46 in 10.0 mi South 3.5 mph - N/A   Overcast
6:58 PM 14.5 °F - 14.5 °F 100% 30.47 in 10.0 mi South 2.3 mph - N/A   Overcast
7:58 PM 13.3 °F 5.6 °F 13.3 °F 100% 30.47 in 10.0 mi ESE 4.6 mph - N/A   Overcast
8:58 PM 14.0 °F - 14.0 °F 100% 30.47 in 10.0 mi Calm Calm - N/A   Overcast
9:28 PM 14.0 °F - 14.0 °F 100% 30.33 in 10.0 mi South 2.3 mph - N/A   Overcast
9:29 PM 14.0 °F - 14.0 °F 100% 30.32 in 10.0 mi South 2.3 mph - N/A   Overcast
9:58 PM 15.1 °F - 15.1 °F 100% 30.47 in 10.0 mi North - - N/A   Overcast
10:33 PM 15.8 °F 8.6 °F 15.8 °F 100% 30.33 in 10.0 mi SSE 4.6 mph - N/A   Overcast
10:42 PM 15.8 °F 8.6 °F 15.8 °F 100% 30.33 in 10.0 mi SSE 4.6 mph - N/A Snow Light Snow
10:58 PM 15.8 °F 8.6 °F 15.8 °F 100% 30.47 in 10.0 mi SSE 4.6 mph - N/A Snow Light Snow
11:58 PM 15.8 °F 8.6 °F 15.8 °F 100% 30.47 in 10.0 mi SSE 4.6 mph - N/A Snow Light Snow